Location: Buce?
(46.1833°N, 22.9333°E)
Time: 18:23:09
(UTC+00:00)

Daily predictions for brighter satellites

Satellite Brightness Start Highest point End
(mag) Time Altitude Azimuth Time Altitude Azimuth Time Altitude Azimuth
BREEZE-M DEB (TANK) 4.1 15:40:03 10° W 15:43:19 60° NNW 15:54:17 10° ENE
COSMOS 2487 4.3 15:47:20 10° NW 15:50:32 37° WSW 15:53:43 10° S
Cosmos 1300 3.0 15:47:34 10° SSE 15:51:11 44° E 15:54:50 10° NNE
Radarsat Rocket 4.3 15:45:38 10° S 15:51:41 72° WSW 15:57:30 10° NNW
Cosmos 1606 Rocket 3.6 15:47:28 10° S 15:51:45 59° E 15:56:06 10° NNE
SMAP 3.1 15:47:34 10° SSE 15:52:14 88° ENE 15:56:55 10° NNW
CZ-4 R/B 2.8 15:51:14 10° ESE 15:53:43 17° ENE 15:56:12 10° NNE
FALCON 9 DEB 3.0 15:50:30 10° SW 15:53:43 72° SE 15:56:56 10° ENE
ADEOS Rocket 3.5 15:47:57 10° NNE 15:54:24 78° WNW 16:01:33 10° SSW
Cosmos 2058 4.4 15:53:26 10° NNE 15:56:05 17° ENE 15:58:45 10° ESE
Cosmos 1110 Rocket 4.1 15:51:34 10° SSW 15:56:50 90° NW 16:02:05 10° NNE
USA 281 3.3 15:50:18 10° SSE 15:56:53 88° WSW 16:03:30 10° NNW
FALCON 9 DEB 2.9 15:53:41 10° SW 15:56:53 80° SE 16:00:05 10° ENE
Cosmos 1825 4.2 15:58:24 10° ENE 15:58:44 10° ENE 15:59:04 10° ENE
Cosmos 1302 Rocket 4.3 15:54:05 10° S 15:59:05 46° ESE 16:04:06 10° NNE
NOAA 11 4.2 15:53:52 10° SSE 15:59:12 60° ENE 16:04:34 10° N
SAR-Lupe-4 4.2 15:57:21 10° NNE 16:00:39 33° E 16:03:56 10° SSE
SKYMED 2 4.4 15:57:28 10° NNE 16:01:21 30° E 16:05:11 10° SSE
CZ-2D R/B 4.2 15:59:12 10° SE 16:02:21 25° ENE 16:05:32 10° NNE
Meteor 2-16 Rocket 4.4 15:57:08 10° N 16:03:12 65° ENE 16:09:14 10° SSE
SL-4 R/B 2.7 16:00:49 10° WNW 16:04:03 33° N 16:07:12 11° ENE
ERS-2 2.0 16:00:47 10° NNE 16:04:25 72° ESE 16:08:03 10° S
Okean-O 3.6 16:01:03 10° ESE 16:04:45 27° ENE 16:08:28 10° N
Envisat 4.1 16:00:25 10° S 16:05:20 49° W 16:10:16 10° NNW
Cosmos 1346 Rocket 4.0 16:03:29 10° NNE 16:06:35 21° ENE 16:09:40 10° ESE
Cosmos 1486 Rocket 4.5 16:02:45 10° N 16:07:48 40° ENE 16:12:48 10° SE
FALCON 9 DEB 2.9 16:06:55 10° WSW 16:10:10 85° NNW 16:13:00 13° ENE
Cosmos 1980 Rocket 3.8 16:08:36 10° ESE 16:10:44 12° E 16:11:33 12° E
Cosmos 1340 3.0 16:07:25 10° N 16:11:02 43° ENE 16:14:40 10° SSE
Cosmos 2297 Rocket 2.2 16:05:37 10° NNW 16:11:16 61° ENE 16:16:51 10° SE
CORIOLIS 4.4 16:07:00 10° S 16:12:20 75° WSW 16:17:44 10° NNW
In-Cosmos 22 Rocket 4.3 16:08:30 10° N 16:13:44 50° ENE 16:19:02 10° SSE
Cosmos 1315 Rocket 4.2 16:12:02 10° SE 16:14:43 18° E 16:17:27 10° NE
USA 305 3.5 16:12:16 10° NW 16:16:24 42° NNE 16:19:35 15° E
Cosmos 1244 Rocket 4.5 16:12:05 10° N 16:18:17 70° E 16:24:32 10° SSE
SAR-Lupe-1 4.2 16:15:04 10° NNE 16:18:35 51° E 16:22:05 10° S
Aureole 3 2.8 16:15:45 10° S 16:18:45 48° E 16:21:39 10° NNE
FALCON 9 DEB 3.1 16:17:37 10° WSW 16:20:50 67° NNW 16:23:13 16° NE
Cosmos 1689 Rocket 2.5 16:18:49 10° NNE 16:21:32 36° E 16:24:14 10° S
Cosmos 1953 Rocket 3.7 16:17:51 10° N 16:22:17 80° W 16:26:44 10° S
USA 306 3.4 16:18:45 10° NW 16:22:53 45° NNE 16:25:47 18° E
CZ-4B R/B 1.6 16:20:01 10° N 16:23:14 68° WNW 16:26:20 10° SSW
FengYun 1-2 T 4.5 16:18:05 10° SSE 16:23:45 79° WSW 16:29:25 10° NNW
Cosmos 2058 Rocket 3.0 16:22:49 10° S 16:27:16 71° E 16:31:47 10° NNE
CZ-4C R/B 4.2 16:22:37 10° NNW 16:27:28 21° NNE 16:31:48 13° ENE
CZ-2C R/B 3.7 16:22:11 10° SE 16:27:31 40° ENE 16:32:43 10° N
Cosmos 1992 Rocket 4.4 16:32:09 10° S 16:36:58 39° ESE 16:41:47 10° NE
Meteor 2-10 Rocket 3.7 16:33:28 10° SSE 16:38:30 45° E 16:43:22 10° NNE
Cosmos 1455 2.9 16:35:49 10° SSE 16:39:10 31° E 16:42:11 12° NNE
Cosmos 2219 3.4 16:37:22 10° NNW 16:43:08 76° WSW 16:48:52 10° SSE
Cosmos 1076 Rocket 3.9 16:40:55 10° N 16:44:54 37° ENE 16:48:04 14° SE
SL-08 ROCKET BODY 4.4 16:42:40 10° N 16:48:48 71° E 16:54:58 10° SSE
COSMO-SKYMED 1 2.6 16:45:10 10° NNE 16:49:32 85° WNW 16:53:53 10° SSW
BREEZE-M R/B 3.7 16:45:48 10° WNW 16:49:39 63° NNE 16:53:43 25° E
Cosmos 2082 3.8 16:45:29 10° NNW 16:51:10 58° ENE 16:56:06 14° SE
ATLAS 5 CENTAUR R/B 4.3 16:49:38 10° NNW 16:51:19 12° N 16:53:05 10° NNE
Cosmos 44 4.3 16:47:50 10° WSW 16:52:09 41° NW 16:56:45 10° NNE
H-2A R/B 2.4 16:49:18 10° SE 16:54:28 47° ENE 16:59:41 10° N
S3M 3.9 16:49:54 10° S 16:55:54 64° E 17:02:01 10° NNE
ARGOS 3.6 16:54:30 23° ESE 16:57:12 38° ENE 17:02:11 10° N
Cosmos 2315 Rocket 4.5 16:52:08 10° SSE 16:57:36 34° E 17:03:05 10° NNE
NOSS 3-4 (A) 4.3 16:51:34 10° NNW 16:57:55 39° NE 17:01:08 27° E
NOSS 3-4 (C) 4.4 16:51:40 10° NNW 16:58:01 39° NE 17:01:12 27° E
SJ-11-01 4.4 16:55:26 16° SE 16:58:55 48° ENE 17:03:26 10° N
CRYOSAT 2 4.4 16:57:03 10° NNE 17:01:50 53° E 17:06:34 10° SSE
Cosmos 1656 3.8 16:56:16 10° SSW 17:01:50 78° WNW 17:07:31 10° NNE
Cosmos 1939 Rocket 3.8 16:58:32 10° S 17:02:22 47° W 17:06:11 10° NNW
GEOS 3 Rocket 3.9 17:00:23 30° ESE 17:02:45 51° NE 17:07:58 10° NNW
YAOGAN 1 2.4 16:58:47 10° SSE 17:03:05 78° ENE 17:07:27 10° N
SeaSat 1 3.1 17:03:39 33° ENE 17:04:25 35° NE 17:08:54 10° NNW
Cosmos 2369 3.8 16:59:52 10° S 17:05:25 55° ESE 17:09:18 20° NE
USA 307 2.8 17:02:03 10° NW 17:06:21 72° NNE 17:07:25 48° E
Cosmos 1417 Rocket 4.5 17:00:19 10° S 17:06:35 88° W 17:12:58 10° N
NOSS 3-3 (A) 3.8 17:01:37 10° SSW 17:07:21 67° ESE 17:11:34 22° NE
NOSS 3-3 (C) 3.8 17:01:44 10° SSW 17:07:28 66° ESE 17:11:38 22° NE
Cosmos 1812 Rocket 3.5 17:05:37 10° S 17:09:55 57° E 17:14:14 10° NNE
USA 215 4.0 17:07:14 26° ENE 17:10:14 39° NNE 17:16:12 10° NW
Cosmos 1408 2.5 17:06:43 10° N 17:10:23 86° WSW 17:14:02 10° S
USA 308 2.8 17:06:58 10° NW 17:11:16 77° NNE 17:12:08 55° ESE
Helios 1A Rocket 3.7 17:10:31 10° S 17:14:33 53° W 17:18:35 10° NNW
Cosmos 2227 Rocket 2.9 17:10:03 10° NW 17:15:34 55° WSW 17:21:04 10° S
Cosmos 1892 3.7 17:12:28 10° NNW 17:16:13 48° W 17:19:57 10° SSW
CSL-04 Rocket 3.6 17:11:12 10° SSE 17:16:43 72° ENE 17:22:13 10° N
MOS 1 Rocket 3.2 17:14:32 10° NNE 17:19:14 66° ESE 17:24:13 10° S
Cosmos 2263 Rocket 3.0 17:14:35 10° N 17:19:27 31° NE 17:19:27 31° NE
ATLAS 2AS CENTAUR R/B 3.3 17:12:53 10° NNW 17:20:03 42° NE 17:22:01 35° ENE
Cosmos 968 Rocket 4.3 17:19:52 10° NNW 17:24:55 50° WSW 17:29:52 10° S
Meteor 2-15 Rocket 4.4 17:19:05 10° S 17:25:14 88° W 17:31:26 10° N
CZ-4 R/B 2.4 17:24:42 10° S 17:28:26 44° W 17:32:08 10° NNW
Cosmos 2151 4.4 17:26:31 10° N 17:28:26 25° N 17:28:26 25° N
Cosmos 1697 Rocket 2.6 17:25:03 10° SSW 17:30:40 84° WNW 17:34:45 20° NNE
Atlas Centaur 2 4.3 17:24:05 10° SW 17:30:44 26° S 17:33:48 21° SSE
Lacrosse 5 3.1 17:27:33 10° NW 17:31:52 27° NNE 17:32:14 27° NNE
Cosmos 2058 3.9 17:29:21 10° NNW 17:33:16 45° W 17:37:10 10° SSW
Meteor 2-1 Rocket 4.4 17:28:59 10° SSW 17:34:28 70° WNW 17:40:01 10° N
Cosmos 1825 2.5 17:30:57 10° NNW 17:34:21 63° NW 17:34:21 63° NW
Cosmos 44 Rocket 3.3 17:34:09 10° SSW 17:38:24 66° SSE 17:38:24 66° SSE
Timation 1 Rocket 4.2 17:33:45 10° NNW 17:39:49 88° ENE 17:41:44 46° SSE
Okean-O 4.2 17:37:04 10° SSW 17:41:06 34° W 17:45:10 10° NNW
SL-4 R/B 3.0 17:40:24 10° WNW 17:42:47 38° NW 17:42:47 38° NW
Cosmos 1315 Rocket 4.2 17:47:16 10° SW 17:50:58 38° WNW 17:54:02 14° N
Cosmos 1980 Rocket 2.1 17:48:09 10° SSW 17:53:25 76° SSE 17:53:25 76° SSE
Cosmos 2297 Rocket 4.5 17:50:32 10° NW 17:54:50 23° W 17:59:06 10° SSW
USA 305 3.9 17:52:20 10° WNW 17:55:45 46° WSW 17:55:45 46° WSW
USA 306 4.2 17:58:50 10° WNW 18:01:57 39° W 18:01:57 39° W
CZ-4C R/B 3.3 18:11:00 10° NNW 18:17:00 46° NNE 18:17:00 46° NNE
Cosmos 2278 4.3 18:19:48 10° SW 18:24:51 55° W 18:24:51 55° W
H-2A R/B 4.0 18:29:31 10° SSW 18:34:04 27° W 18:38:40 10° NW
ATLAS 5 CENTAUR R/B 4.5 18:35:21 10° NNW 18:36:16 12° N 18:36:16 12° N
SeaSat 1 4.1 18:43:28 30° WNW 18:43:28 30° WNW 18:46:29 10° NW
NOSS 3-4 (A) 4.1 18:42:19 10° NW 18:48:36 62° W 18:48:36 62° W
NOSS 3-4 (C) 4.1 18:42:25 10° NW 18:48:40 62° W 18:48:40 62° W
USA 215 3.9 18:54:35 50° NW 18:54:35 50° NW 18:59:16 10° NW
Cosmos 2263 Rocket 3.9 18:58:20 10° NW 19:01:09 28° NW 19:01:09 28° NW
ATLAS 2AS CENTAUR R/B 3.6 19:04:05 10° NW 19:09:28 46° WNW 19:09:28 46° WNW
